STARLINK-5371, 55489

Orbit data source: Space-Track

STARLINK-5371, 55489 is a payload satellite owned by SpaceX/Seattle (US) in LEO that was launched on Thu, 02 Feb 2023 UTC via an FALCON 9 launch vehicle from the Air Force Eastern Test Range (AFETR). Payload-class satellites include a variety of spacecraft equipped with specific instruments for various scientific and technological missions. These include communications satellites like Starlink; space stations such as the ISS; scientific satellites like the Hubble; Earth observation satellites from companies like Planet Labs, Umbra, and HawkEye 360; GPS; miniature CubeSats for education and research; and military/defense satellites.

Loading next visibility...
Identifier
55489, 2023-015AS
Orbit
LEO
Country
Flag of USUS
Related business
Manufacturer
SpaceX/Seattle
Mission
Operational Commercial Communications
Bus & Motor
STARLINK, Unknown motor
Mass
305 kg wet, ~290 kg dry
Launch date (UTC)
2023-02-02 (3 years ago)
Launch vehicle
FALCON 9
Launch site
Air Force Eastern Test Range (AFETR)
Object type
Payload
Rocket body
Debris
Shape & HBR
Box + 1 Pan, 10.1 m
Radar Cross Section
13.562 m², Large (>1 m²)

Expand to show TLE details & history
Last TLE update: 11 hours ago

TLE from 11 hours ago
0 STARLINK-5371
1 55489U 23015AS  25288.69808331 -.00000488  00000-0 -21062-4 0  9992
2 55489  43.0011  46.8056 0001806 279.2667  80.7971 15.02542878148798
Epoch: 2025-10-15T16:45Z
TLE epoch observation values (Epoch: 2025-10-15T16:45:14.397Z)
Latitude
-0.00004°
Longitude
131.02714°
Altitude
558.636 km
Speed
7.584 km/s
True Right ascension
03h 07m 13s
True Declination
0° 00' 00"
Sunlit
Object was in full shadow at epoch
Visualization orbit readout
Latitude
Unknown
Longitude
Unknown
Altitude
Unknown
Speed
Unknown
Apparent Right ascension
Unknown
Apparent Declination
Unknown
Sunlit
N/A
Visualization observer readout
Local Sidereal Time
22:02:04
Azimuth
Unknown
Elevation
Unknown
Doppler factor
Unknown
Orbital elements
Apogee altitude
562.235 km
Perigee altitude
559.729 km
Semi-major axis
6,939.119 km
Eccentricity
0.00018
Inclination
43.0011°
RAAN
46.8056°
Arg. of periapsis
279.2667°
True anomaly
80.81753°
Mean anomaly
80.7971°
Eccentric anomaly
80.80731°
Mean motion
3.7548 °/min
Orbital period
95.88 mins
BSTAR
-0.000021062
Loading maneuver chart data...
Computing Atmospheric mass density...
Loading historical data...
Loading historical data...
Loading historical data...
Loading historical data...
Loading historical data...
Loading historical data...
Loading historical data...

Documentation

Showing up to 5 results
|